7 * 24
多渠道服务支持
STARLINK-32163是美国SpaceX星链互联网卫星星座的一员,于2024年7月27日发射入轨,旨在为全球提供高速低延迟宽带互联网服务,尤其服务偏远地区和网络基础设施匮乏区域。该卫星延续星链设计,采用低轨部署,依托规模化星座组网,助力实现全球无缝网络覆盖,推动星链星座服务能力进一步完善。 (全文119字)
美国
(US)
| 数据来源 | 国际轨道数据 | AOE轨道数据 |
| 星历时间 | 2026-09-11T16:02:10+0800 13小时前 查看轨道信息 | 2026-09-07T09:00:00+0800 4天前 查看轨道信息 |
| 半长轴 | 6848.865km | 6848.868km |
| 偏心率 | 0.0001248 | 0.0001288 |
| 轨道倾角 | 53.160° | 53.158° |
| 近地点辐角 | 84.635° | 90.734° |
| 升交点赤经 | 268.574° | 288.561° |
| 平近点角 | 275.479° | 343.076° |
| 近地点 | 469.873km | 469.848km |
| 远地点 | 471.583km | 471.614km |
| 周期 | 94.013分钟 | 94.013分钟 |
| 每日圈数 | 15.317043 | 15.317032 |
| 事件ID | 空间交会对象 | 最接近时刻(TCA) | 交会距离 | 交会风险概率(CRP) | 交会风险指数(CRI) | 操作 |
|---|---|---|---|---|---|---|
| CDM_260912-043106-026206-882221 |
STARLINK-32163
(60262)
STARLINK-37462
(68822) | 2026-09-12T 04:31:43+0000 |
1.824 km
极远距离 | 3.642894E-6 低风险 | 0.46 | |
| CDM_260912-230605-306106-026221 |
STARLINK-4308
(53061)
STARLINK-32163
(60262) | 2026-09-12T 23:06:01+0000 |
2.837 km
极远距离 | 1.432787E-6 低风险 | 0.38 | |
| CDM_260907-122404-780406-026224 |
STARLINK-2385
(47804)
STARLINK-32163
(60262) | 2026-09-07T 12:24:53+0000 |
2.770 km
极远距离 | 1.331174E-6 低风险 | 0.37 | |
| CDM_260912-204605-635406-026221 |
STARLINK-5877
(56354)
STARLINK-32163
(60262) | 2026-09-12T 20:46:58+0000 |
2.902 km
极远距离 | 8.257861E-7 极低风险 | 0.33 |